CALSPHERE 1 1 00900U 64063C 08286.19445043 .00000233 00000-0 25294-3 0 6105 2 00900 090.1703 322.7922 0025392 251.8778 107.9650 13.70368539185509 CALSPHERE 2 1 00902U 64063E 08286.61089284 .00000075 00000-0 10000-3 0 8818 2 00902 090.1715 325.9230 0015886 246.7557 113.1916 13.52457538983908 LCS 1 1 01361U 65034C 08285.72715829 +.00000009 +00000-0 +10000-3 0 00582 2 01361 032.1439 028.9234 0005946 122.8534 237.2539 09.89275011570759 TEMPSAT 1 1 01512U 65065E 08286.72392565 .00000059 00000-0 10000-3 0 9699 2 01512 089.8164 304.8812 0071076 016.3834 343.9571 13.33251508 99651 CALSPHERE 4(A) 1 01520U 65065H 08286.86155592 .00000059 00000-0 10000-3 0 994 2 01520 090.1856 078.6672 0068969 305.4049 054.0663 13.35298223101248 OPS 5712 (P/L 160) 1 02826U 67053A 08285.75029080 +.00000400 +00000-0 +15166-3 0 05502 2 02826 069.9361 019.2288 0004680 157.3417 202.7934 14.38046824131574 OPS 5712 (P/L 153) 1 02874U 67053H 08285.42313730 -.00000049 +00000-0 +31423-5 0 09305 2 02874 069.9710 264.3598 0009664 285.3800 074.6238 13.95910651105829 SURCAL 150B 1 02909U 67053J 08285.72471792 +.00000445 +00000-0 +14105-3 0 07213 2 02909 069.9554 200.9953 0007227 294.0399 065.9975 14.46219999137042 RIGIDSPHERE 2 (LCS 4) 1 05398U 71067E 08286.74813122 .00000124 00000-0 39546-4 0 3844 2 05398 087.6227 317.4271 0063285 267.3155 092.0804 14.31093176949175 OPS 8180 (RADCAT) 1 06212U 72076A 08286.81756972 .00002503 00000-0 95589-4 0 5763 2 06212 098.5740 251.3005 0004345 115.4514 244.7200 15.27833141 85095